Location: Lancaster
(45.1330°N, 74.5000°W)
Time: 18:20:05
(UTC-04:00)

Tiangong 2 - Visible Passes

Search period start: 18 August 2018 00:00
Search period end: 28 August 2018 00:00
Orbit: 384 x 395 km, 42.8° (Epoch: 18 August)

Date Brightness Start Highest point End Pass type
(mag) Time Alt. Az. Time Alt. Az. Time Alt. Az.
18 Aug 2.7 05:02:08 13° SSW 05:04:16 25° SSE 05:06:58 10° E visible
19 Aug 3.2 04:06:55 17° SE 04:06:55 17° SE 04:08:47 10° ESE visible
20 Aug 2.0 04:44:01 25° SSW 04:45:13 35° SSE 04:48:12 10° E visible
21 Aug 3.2 03:48:46 20° ESE 03:48:46 20° ESE 03:50:12 10° E visible
21 Aug 1.4 05:21:05 11° WSW 05:24:01 54° S 05:27:11 10° E visible
22 Aug 1.4 04:25:51 44° SSW 04:26:12 47° S 04:29:18 10° E visible
23 Aug 3.7 03:30:38 15° ESE 03:30:38 15° ESE 03:31:23 10° E visible
23 Aug 1.3 05:02:57 19° WSW 05:05:01 56° S 05:08:11 10° ESE visible
24 Aug 1.8 04:07:47 45° SE 04:07:47 45° SE 04:10:19 10° E visible
25 Aug 1.3 04:45:01 35° WSW 04:45:59 50° S 04:49:06 10° ESE visible
26 Aug 3.2 03:50:01 21° ESE 03:50:01 21° ESE 03:51:17 10° ESE visible
26 Aug 2.1 05:22:21 13° WSW 05:24:43 29° SSW 05:27:33 10° SE visible
27 Aug 2.0 04:27:30 35° SSE 04:27:30 35° SSE 04:29:55 10° SE visible
